EST,Max TemperatureF,Mean TemperatureF,Min TemperatureF,Max Dew PointF,MeanDew PointF,Min DewpointF,Max Humidity, Mean Humidity, Min Humidity, Max Sea Level PressureIn, Mean Sea Level PressureIn, Min Sea Level PressureIn, Max VisibilityMiles, Mean VisibilityMiles, Min VisibilityMiles, Max Wind SpeedMPH, Mean Wind SpeedMPH, Max Gust SpeedMPH,PrecipitationIn, CloudCover, Events, WindDirDegrees
2011-11-1,64,50,37,38,35,30,89,59,30,30.35,30.30,30.23,10,10,10,8,2,,0.00,0,,64
2011-11-2,64,52,39,39,36,33,82,56,31,30.43,30.36,30.30,10,10,10,7,2,,0.00,0,,53
2011-11-3,68,52,37,55,47,35,100,80,43,30.29,30.00,29.80,10,8,2,13,3,17,0.56,5,Rain-Thunderstorm,127
2011-11-4,64,56,48,55,47,42,100,77,43,30.11,29.87,29.75,10,10,4,17,8,24,0.08,5,Rain,9
2011-11-5,57,49,43,42,31,23,83,54,29,30.41,30.29,30.12,10,10,10,20,10,28,0.00,0,,56
2011-11-6,63,52,41,44,37,30,77,57,46,30.50,30.43,30.37,10,10,10,10,6,,0.00,4,,35
2011-11-7,68,54,39,46,44,38,93,68,42,30.42,30.36,30.29,10,10,10,6,1,,0.00,0,,100
2011-11-8,68,56,43,48,45,40,93,68,43,30.30,30.24,30.18,10,10,10,7,2,,0.00,0,,7
2011-11-9,66,54,43,54,49,41,93,74,57,30.18,30.09,29.98,10,10,10,8,3,,0.00,3,,259
2011-11-10,64,54,43,56,44,23,96,70,42,30.02,29.94,29.86,10,10,7,14,3,23,0.03,4,Rain,344
2011-11-11,54,44,33,25,20,15,64,41,22,30.21,30.14,30.04,10,10,10,9,6,,0.00,0,,237
2011-11-12,64,49,34,30,27,24,73,46,23,30.31,30.26,30.20,10,10,10,15,3,21,0.00,0,,227
2011-11-13,64,54,43,49,39,28,75,59,33,30.29,30.20,30.12,10,10,10,16,4,29,0.00,1,,232
2011-11-14,69,62,55,53,50,46,72,64,53,30.16,30.09,30.02,10,10,10,16,5,24,0.00,7,,233
2011-11-15,72,66,61,63,60,53,96,80,66,30.03,29.99,29.94,10,9,2,15,5,20,0.03,7,Rain,223
2011-11-16,71,66,60,67,64,55,100,94,83,29.96,29.84,29.74,10,6,0,15,6,30,1.32,8,Fog-Rain-Thunderstorm,211
2011-11-17,59,49,39,53,38,17,94,63,40,30.34,30.05,29.81,10,10,8,14,8,23,0.07,4,Rain,18
2011-11-18,50,42,33,26,18,15,73,40,27,30.52,30.44,30.35,10,10,10,9,7,,0.00,0,,58
2011-11-19,57,44,32,36,28,21,82,52,36,30.48,30.41,30.35,10,10,10,7,2,,0.00,5,,35
2011-11-20,59,55,51,57,50,35,100,85,52,30.39,30.33,30.27,10,5,1,8,3,,0.03,8,Rain,212
2011-11-21,75,66,57,63,58,57,100,86,56,30.27,30.23,30.17,10,7,2,10,6,,0.08,4,Rain-Thunderstorm,254
2011-11-22,73,64,55,64,59,54,96,81,55,30.18,30.03,29.89,10,9,5,18,6,26,0.26,6,Rain,195
2011-11-23,66,58,50,63,47,34,94,65,37,30.19,29.99,29.84,10,10,10,22,13,31,0.00,2,,311
2011-11-24,66,54,41,34,30,23,70,45,20,30.38,30.33,30.22,10,10,10,12,4,,0.00,0,,85
2011-11-25,66,51,36,35,31,23,86,54,20,30.41,30.35,30.29,10,10,10,10,2,,0.00,0,,239
2011-11-26,66,54,42,51,43,34,78,62,45,30.36,30.28,30.21,10,10,4,10,3,,0.00,7,,176
2011-11-27,69,62,55,56,52,51,87,72,54,30.18,30.08,29.97,10,10,10,15,9,,0.00,7,,153
2011-11-28,64,54,44,62,53,42,100,92,77,29.95,29.86,29.73,10,7,2,20,9,34,1.35,8,Rain,166
2011-11-29,44,40,35,43,36,32,100,90,70,29.91,29.84,29.79,10,10,8,13,8,20,0.03,7,Rain,220
2011-11-30,53,43,33,35,32,27,96,71,47,30.14,30.01,29.90,10,10,10,9,5,,0.00,0,,296